C/2018 L2 ( ATLAS )

Japanese version
Home page
Updated on July 9, 2019

---------------------------------------------------------------------

* Profile

Discovery Date June 6, 2018
Magnitude 15.6 mag
Discoverer Asteroid Terrestrial-impact Last Alert System (ATLAS) search program

* Pictures

* Orbital Elements

Epoch 2018 Nov. 18.0 TT = JDT 2458440.5
T 2018 Dec. 2.57774 TT                                  MPCW
q   1.7116881            (2000.0)            P               Q
z  +0.0041023      Peri.   56.22913     +0.03219785     +0.56732531
 +/-0.0000013      Node   243.01861     -0.89265583     +0.38665603
e   0.9929782      Incl.   67.42371     +0.44958743     +0.72707572
From 551 observations 2018 June 4-2019 May 2, mean residual 0".5.

* Finding Charts

* Magnitudes Graph

        m1 = 3.0 + 5 log d + 25.0 log r

---------------------------------------------------------------------

The orbital elements are published on M.P.E.C. 2019-J142.
The charts are made with StellaNavigator Ver.10 (AstroArts).
The magnitudes graphs are made with Comet for Windows.

---------------------------------------------------------------------

Copyright(C) Seiichi Yoshida (comet@aerith.net). All rights reserved.